Home   Weather   Płock   Past weeks

Flag for Poland Past Weather in Płock, Poland — Yesterday and Last 2 Weeks

Now
46 °F

Cool.


Feels Like: 44 °F
Forecast: 35 / 53 °F
Wind: 3 mph from Northwest

Location: Plock

Current Time: Apr 29, 2017 at 9:43:54 pm

Latest Report: Apr 29, 2017 at 8:00 pm


Visibility: N/A

Pressure: 30.03 "Hg

Humidity: 78%

Dew Point: 39 °F

Location of PłockLocation

Past Weather in Płock — Graph

°F

Płock Temperature Yesterday

Maximum temperature yesterday: 41 °F (at 1:00 pm)
Minimum temperature yesterday: 36 °F (at 2:00 am)
Average temperature yesterday: 39 °F

High & Low Weather Summary for the Past Weeks

 TemperatureHumidityPressure
High62 °F (Apr 25, 2:00 pm)96% (Apr 28, 9:00 pm)30.50 "Hg (Apr 28, 9:00 pm)
Low29 °F (Apr 17, 5:00 am)32% (Apr 23, 12:00 pm)29.57 "Hg (Apr 25, 3:00 pm)
Average42 °F70%29.99 "Hg
* Reported Apr 14 7:00 pm — Apr 29 7:00 pm, Płock, Weather by CustomWeather, © 2017

Note: Actual official high and low records may vary slightly from our data, if they occured in-between our weather recording intervals... More about our weather records

Advertising

Płock Weather History for the Previous 24 Hours

Scroll right to see more
 ConditionsComfort  
Time TempWeatherWind HumidityBarometerVisibility
7:00 pm
Sat, Apr 29
49 °FCool.1 mph63%30.01 "HgN/A
6:00 pm48 °FCool.5 mph68%30.00 "HgN/A
5:00 pm51 °FCool.3 mph53%29.99 "HgN/A
4:00 pm53 °FCool.3 mph54%29.98 "HgN/A
3:00 pm51 °FCool.5 mph58%29.98 "HgN/A
2:00 pm50 °FCool.5 mph70%29.97 "HgN/A
1:00 pm49 °FCool.6 mph66%29.96 "HgN/A
12:00 pm47 °FCool.6 mph74%29.95 "HgN/A
11:00 am45 °FQuite cool.6 mph78%29.94 "HgN/A
10:00 am43 °FQuite cool.6 mph84%29.92 "HgN/A
9:00 am42 °FQuite cool.5 mph85%29.90 "HgN/A
8:00 am41 °FQuite cool.7 mph92%29.88 "HgN/A
7:00 am40 °FChilly.5 mph93%29.86 "HgN/A
6:00 am39 °FChilly.3 mph95%29.85 "HgN/A
5:00 am39 °FChilly.3 mph95%29.83 "HgN/A
4:00 am39 °FChilly.3 mph95%29.82 "HgN/A
3:00 am39 °FChilly.2 mph95%29.82 "HgN/A
2:00 am39 °FChilly.2 mph96%29.81 "HgN/A
1:00 am39 °FChilly.2 mph95%29.82 "HgN/A
12:00 am39 °FChilly.3 mph95%29.81 "HgN/A
11:00 pm
Fri, Apr 28
39 °FChilly.3 mph95%29.81 "HgN/A
10:00 pm39 °FChilly.2 mph96%29.84 "HgN/A
9:00 pm40 °FChilly.2 mph96%29.85 "HgN/A
Weather by CustomWeather, © 2017

See weather overviewHow to use our weather pages